Location: Unspecified
(0.0000°N, 0.0000°E)
Time: 09:37:41
(UTC+00:00)

CZ-3C DEB - Pass Details

Date: 12 March 2026
Orbit: 509 x 34331 km, 19.9° (Epoch: 18 April)

Event Time Altitude Azimuth Distance (km) Brightness Sun altitude
Rises 19:37:50 0° 265° (W) 6,086 ? -22.0°
Reaches altitude 10° 19:40:19 10° 260° (W) 5,846 ? -22.6°
Maximum altitude 04:34:19 86° 327° (NNW) 12,536 ? -23.8°
Drops below altitude 10° 05:13:22 10° 64° (ENE) 6,314 ? -14.0°
Sets 05:15:53 0° 65° (ENE) 6,548 ? -13.4°
